Weather History for Baker, MT

Change the Weather History Date:

Saturday, November 10, 2012

  Actual Average Record
Temperature  
Mean Temperature 14 °F -  
Max Temperature 26 °F 14 °F 68 °F (2007)
Min Temperature 3 °F -10 °F 1 °F (2000)
Degree Days  
Heating Degree Days 50    
Moisture  
Dew Point 12 °F    
Average Humidity 80    
Maximum Humidity 88    
Minimum Humidity 73    
Precipitation  
Precipitation 0.08 in - - ()
Sea Level Pressure  
Sea Level Pressure 29.84 in    
Wind  
Wind Speed 12 mph (NNW)    
Max Wind Speed 25 mph    
Max Gust Speed 30 mph    
Visibility 6 miles    
Events Fog , Snow    
Averages and records for this station are not official NWS values.
T = Trace of Precipitation, MM = Missing Value Source: NWS Daily Summary

Daily Weather History Graph

Daily Weather History Graph

Search for Another Location

Airport:

Trip Planner

Search our weather history database for the weather conditions in past years. The results will help you decide how hot, cold, wet, or windy it might be!

Date:

Astronomy

Nov. 10, 2012 Rise Set
Actual Time 6:52 AM MST 4:29 PM MST
Civil Twilight 6:19 AM MST 5:01 PM MST
Nautical Twilight 5:43 AM MST 5:37 PM MST
Astronomical Twilight 5:08 AM MST 6:13 PM MST
Moon 2:48 AM MST (11/10) 2:27 PM MST (11/10)
Length of Visible Light 10h 41m
Length of Day
9h 37m
Waning Crescent, 14% of the Moon is Illuminated
Nov 10
Waning Crescent
Nov 13
New
Nov 20
First Quarter
Nov 28
Full
Dec 6
Last Quarter

Hourly Weather History & Observations

Time (MST) Temp. Windchill Dew Point Humidity Pressure Visibility Wind Dir Wind Speed Gust Speed Precip Events Conditions
12:34 AM 26.6 °F 16.8 °F 21.2 °F 80% 29.73 in 2.5 mi East 10.4 mph - 0.01 in Snow Light Snow
12:42 AM 26.6 °F 16.8 °F 21.2 °F 80% 29.73 in 1.5 mi East 10.4 mph - 0.02 in Snow Light Snow
12:49 AM 26.6 °F 17.5 °F 21.2 °F 80% 29.73 in 0.8 mi East 9.2 mph - 0.03 in Snow Light Snow
12:51 AM 26.1 °F 15.0 °F 21.9 °F 84% 29.81 in 0.8 mi East 12.7 mph - 0.03 in Snow Light Snow
12:58 AM 26.6 °F 16.8 °F 21.2 °F 80% 29.72 in 0.5 mi East 10.4 mph - 0.01 in Fog , Snow Snow
1:11 AM 24.8 °F 12.9 °F 21.2 °F 86% 29.71 in 1.0 mi East 13.8 mph - 0.02 in Snow Light Snow
1:32 AM 24.8 °F 14.6 °F 21.2 °F 86% 29.71 in 1.2 mi ENE 10.4 mph - 0.03 in Snow Light Snow
1:42 AM 24.8 °F 14.0 °F 21.2 °F 86% 29.71 in 2.0 mi East 11.5 mph - 0.03 in Snow Light Snow
1:51 AM 24.1 °F 13.1 °F 21.0 °F 88% 29.79 in 2.5 mi East 11.5 mph - 0.03 in Snow Light Snow
1:59 AM 24.8 °F 16.1 °F 21.2 °F 86% 29.71 in 3.0 mi East 8.1 mph - 0.00 in Snow Light Snow
2:22 AM 24.8 °F 16.9 °F 19.4 °F 80% 29.71 in 2.5 mi ENE 6.9 mph - 0.01 in Snow Light Snow
2:27 AM 24.8 °F 15.3 °F 19.4 °F 80% 29.71 in 2.5 mi ENE 9.2 mph - 0.01 in Snow Light Snow
2:34 AM 24.8 °F 15.3 °F 19.4 °F 80% 29.71 in 4.0 mi ENE 9.2 mph - 0.01 in Snow Light Snow
2:39 AM 24.8 °F 16.1 °F 19.4 °F 80% 29.71 in 6.0 mi NE 8.1 mph - 0.01 in Snow Light Snow
2:51 AM 24.1 °F 16.0 °F 19.0 °F 81% 29.81 in 9.0 mi NE 6.9 mph - 0.01 in Snow Light Snow
3:51 AM 21.9 °F 14.5 °F 18.0 °F 85% 29.83 in 2.5 mi NNE 5.8 mph - 0.00 in Snow Light Snow
4:04 AM 21.2 °F 12.6 °F 17.6 °F 86% 29.73 in 2.0 mi North 6.9 mph - 0.01 in Snow Light Snow
4:14 AM 21.2 °F 12.6 °F 17.6 °F 86% 29.74 in 4.0 mi North 6.9 mph - 0.01 in Snow Light Snow
4:42 AM 21.2 °F 12.6 °F 17.6 °F 86% 29.75 in 5.0 mi North 6.9 mph - 0.01 in Snow Light Snow
4:51 AM 21.0 °F 13.4 °F 17.1 °F 85% 29.85 in 8.0 mi North 5.8 mph - 0.01 in Snow Light Snow
5:46 AM 19.4 °F 8.6 °F 15.8 °F 86% 29.75 in 10.0 mi NNW 9.2 mph - 0.00 in   Overcast
5:51 AM 19.9 °F 9.3 °F 15.1 °F 81% 29.85 in 10.0 mi NNW 9.2 mph - 0.00 in   Overcast
6:15 AM 19.4 °F 7.9 °F 14.0 °F 80% 29.75 in 10.0 mi North 10.4 mph - N/A   Overcast
6:51 AM 19.0 °F 9.0 °F 14.0 °F 81% 29.85 in 10.0 mi North 8.1 mph - N/A   Mostly Cloudy
7:44 AM 15.8 °F 3.4 °F 12.2 °F 86% 29.76 in 10.0 mi NNW 10.4 mph - N/A   Mostly Cloudy
7:51 AM 17.1 °F 5.8 °F 12.0 °F 81% 29.87 in 10.0 mi North 9.2 mph 19.6 mph N/A   Mostly Cloudy
8:46 AM 15.8 °F 1.4 °F 10.4 °F 79% 29.78 in 10.0 mi NW 13.8 mph - N/A   Overcast
8:51 AM 16.0 °F 0.1 °F 12.0 °F 84% 29.89 in 10.0 mi NW 17.3 mph - N/A   Overcast
9:51 AM 15.1 °F -1.6 °F 10.9 °F 84% 29.90 in 5.0 mi NW 18.4 mph - 0.00 in Snow Light Snow
10:51 AM 15.1 °F -0.1 °F 10.0 °F 80% 29.92 in 5.0 mi WNW 15.0 mph - 0.00 in Snow Light Snow
11:49 AM 15.8 °F -0.2 °F 8.6 °F 73% 29.79 in 8.0 mi NW 17.3 mph - 0.00 in Snow Light Snow
11:51 AM 15.1 °F -1.6 °F 9.0 °F 77% 29.90 in 8.0 mi NW 18.4 mph 25.3 mph 0.00 in Snow Light Snow
12:12 PM 14.0 °F -4.7 °F 8.6 °F 79% 29.79 in 9.0 mi NW 23.0 mph 28.8 mph 0.00 in Snow Light Snow
12:41 PM 14.0 °F -2.5 °F 8.6 °F 79% 29.79 in 9.0 mi NW 17.3 mph 29.9 mph 0.00 in Snow Light Snow
12:51 PM 14.0 °F -4.3 °F 8.1 °F 77% 29.91 in 9.0 mi NW 21.9 mph - 0.00 in Snow Light Snow
1:30 PM 14.0 °F -4.3 °F 6.8 °F 73% 29.81 in 8.0 mi NW 21.9 mph 28.8 mph 0.00 in Snow Light Snow
1:51 PM 14.0 °F -4.3 °F 8.1 °F 77% 29.94 in 9.0 mi NW 21.9 mph 28.8 mph 0.00 in Snow Light Snow
3:14 PM 12.2 °F -7.9 °F 6.8 °F 79% 29.82 in 9.0 mi NW 25.3 mph 29.9 mph 0.00 in Snow Light Snow
3:34 PM 12.2 °F -6.3 °F 5.0 °F 73% 29.84 in 9.0 mi NW 20.7 mph 29.9 mph 0.00 in Snow Light Snow
4:51 PM 12.0 °F -5.1 °F 5.0 °F 73% 29.99 in 9.0 mi NW 17.3 mph 27.6 mph 0.00 in Snow Light Snow
5:30 PM 12.2 °F -3.7 °F 5.0 °F 73% 29.89 in 9.0 mi WNW 15.0 mph - 0.00 in Snow Light Snow
5:51 PM 12.0 °F -5.1 °F 6.1 °F 77% 30.03 in 9.0 mi WNW 17.3 mph - 0.00 in Snow Light Snow
6:26 PM 12.2 °F -4.3 °F 6.8 °F 79% 29.90 in 2.5 mi WNW 16.1 mph - 0.00 in Snow Light Snow
6:31 PM 12.2 °F -6.3 °F 6.8 °F 79% 29.91 in 4.0 mi WNW 20.7 mph 27.6 mph 0.00 in Snow Light Snow
6:51 PM 10.9 °F -8.8 °F 6.1 °F 81% 30.05 in 6.0 mi WNW 23.0 mph 29.9 mph 0.00 in Snow Light Snow
7:01 PM 10.4 °F -9.1 °F 5.0 °F 79% 29.91 in 9.0 mi WNW 21.9 mph 28.8 mph 0.00 in Snow Light Snow
7:51 PM 9.0 °F -11.0 °F 3.9 °F 80% 30.06 in 8.0 mi WNW 21.9 mph 27.6 mph 0.00 in Snow Light Snow
8:51 PM 9.0 °F -10.0 °F 3.0 °F 77% 30.05 in 6.0 mi WNW 19.6 mph - 0.00 in Snow Light Snow
9:51 PM 6.1 °F -12.2 °F 1.0 °F 80% 30.06 in 9.0 mi WNW 16.1 mph - 0.00 in Snow Light Snow
10:32 PM 5.0 °F -15.2 °F -0.4 °F 78% 29.88 in 9.0 mi WNW 19.6 mph - 0.00 in Snow Light Snow
10:40 PM 5.0 °F -14.2 °F -0.4 °F 78% 29.89 in 9.0 mi WNW 17.3 mph 25.3 mph 0.00 in Snow Light Snow
11:44 PM 3.2 °F -15.9 °F -2.2 °F 78% 29.89 in 10.0 mi West 16.1 mph - 0.00 in   Scattered Clouds
11:51 PM 3.9 °F -15.0 °F -2.0 °F 76% 30.05 in 10.0 mi West 16.1 mph - 0.00 in   Partly Cloudy